Lunenburg, Nouvelle Écosse

Conditions des dernières 24 heures

Date / Heure
(HAA)
Conditions Temp
(°C)
Humidité
(%)
Point de rosée
(°C)
Vent
(km/h)
Pression
(kPa)
Visibilité
(km)
25 octobre 2014
16:00 N.D. 11 85 9 ONO 16 99,9 N.D.
15:00 N.D. 11 87 9 NO 19 rafale 29 99,8 N.D.
14:00 N.D. 11 87 9 NO 26 99,8 N.D.
13:00 N.D. 11 85 9 NO 26 99,9 N.D.
12:00 N.D. 11 88 9 NO 20 99,9 N.D.
11:00 N.D. 11 90 9 NO 17 99,9 N.D.
10:00 N.D. 10   92 9 NO 22 99,9 N.D.
9:00 N.D. 10   93 9 ONO 17 99,9 N.D.
8:00 N.D. 10   91 9 NO 18 99,8 N.D.
7:00 N.D. 11 92 9 NO 15 99,8 N.D.
6:00 N.D. 11 90 9 NO 18 99,8 N.D.
5:00 N.D. 11 91 10 NNO 23 99,7 N.D.
4:00 N.D. 12 93 11 NNO 19 99,7 N.D.
3:00 N.D. 12 93 11 NO 15 99,7 N.D.
2:00 N.D. 12 93 11 NO 20 99,7 N.D.
1:00 N.D. 13 93 11 NNO 19 99,7 N.D.
0:00 N.D. 13 94 12 NO 14 99,7 N.D.
24 octobre 2014
23:00 N.D. 13 94 12 NO 15 99,7 N.D.
22:00 N.D. 13 93 12 N 13 99,7 N.D.
21:00 N.D. 14 93 13 N 14 99,6 N.D.
20:00 N.D. 14 94 13 NNO 16 99,6 N.D.
19:00 N.D. 15   95 14 N 19 99,6 N.D.
18:00 N.D. 15   97 14 N 13 99,6 N.D.
17:00 N.D. 15   96 14 N 17 99,7 N.D.
16:00 N.D. 15   96 15 N 14 99,7 N.D.
N.D. non disponible
↑ température la plus haute
↓ température la plus basse

Si vous désirez plus de données historiques sur les conditions météo, s.v.p. visitez Données climatologiques en ligne.

Date de modification :